Location: Gro�sch�nbrunn
(49.5760°N, 11.8868°E)
Time: 23:24:52
(UTC+00:00)

DMSP B5D2-2 - Pass Details

Date: 18 September 2020
Orbit: 790 x 806 km, 98.3° (Epoch: 30 October)

Event Time Altitude Azimuth Distance (km) Brightness Sun altitude
Rises 18:38:31 0° 18° (NNE) 3,334 7.3 -13.5°
Reaches altitude 10° 18:40:58 10° 25° (NNE) 2,399 6.5 -13.9°
Maximum altitude 18:46:05 47° 98° (E) 1,069 4.3 -14.7°
Drops below altitude 10° 18:51:09 10° 172° (S) 2,380 6.3 -15.5°
Sets 18:53:33 0° 178° (S) 3,305 7.1 -15.8°
